[[{"header":{"parameterUnit":"m.s-1","parameterCategory":2,"la1":30.2991,"la2":30.254,"lo1":-89.0895,"lo2":-89.0444,"dy":0.0017,"dx":0.0017,"nx":28,"ny":28,"refTime":"2024-05-17T21:00:00:Z","depth":"0","parameterNumber":2,"parameterNumberName":"U-component_of_CURRENTS"},"data":[0,0,0,0,0,0,0,0,0,0,0,0,0,0,0,0,0,0,0,0,0,0,0,0,0,0,0,0,0,0,0,0,0,0,0,0,0,0,0,0,0,0,0,0,0,0,0,0,0,0,0,0,0,0,0,0,0,0,-0.2545,-0.2546,0,-0.2553,-0.2553,-0.2553,-0.2508,-0.2507,-0.2506,-0.2505,-0.2416,-0.2415,-0.2414,0,0,0,0,0,0,0,0,0,0,0,0,0,-0.2466,-0.2468,-0.2545,-0.2546,-0.2546,-0.2553,-0.2553,-0.2553,-0.2508,-0.2507,-0.2506,-0.2505,-0.2417,-0.2415,-0.2413,0,0,0,0,0,0,0,0,0,0,0,0,0,-0.2487,-0.2468,-0.2545,-0.2527,-0.2526,-0.2553,-0.2553,-0.2553,-0.2508,-0.2507,-0.2506,-0.2504,-0.2417,-0.2415,-0.2413,-0.2429,0,0,-0.2407,-0.2406,0,0,0,0,0,0,0,0,-0.2486,-0.2489,-0.253,-0.2529,-0.2527,-0.2531,-0.2493,-0.2508,-0.2509,-0.2512,-0.2505,-0.2503,-0.2449,-0.2444,-0.2446,-0.2425,-0.2421,-0.2406,-0.2405,-0.2404,-0.2403,0,0,0,0,0,0,0,-0.2484,-0.2489,-0.2545,-0.253,-0.2529,-0.251,-0.2511,-0.2496,-0.2484,-0.2511,-0.2509,-0.2516,-0.2447,-0.2448,-0.2443,-0.242,-0.2406,-0.2404,-0.2403,-0.2402,-0.238,-0.2381,0,0,0,0,0,0,-0.2494,-0.2488,-0.2545,-0.2546,-0.2506,-0.2513,-0.2514,-0.2529,-0.2486,-0.248,-0.2517,-0.2514,-0.2452,-0.2446,-0.244,-0.2444,-0.2404,-0.2402,-0.2401,-0.2379,-0.238,-0.2381,0,0,0,0,0,0,-0.2492,-0.2499,-0.2545,-0.2519,-0.2524,-0.2517,-0.2533,-0.253,-0.2523,-0.2492,-0.2483,-0.2512,-0.2451,-0.2443,-0.2425,-0.2441,-0.2401,-0.2399,-0.2379,-0.238,-0.2381,-0.2461,0,0,0,0,0,0,-0.249,-0.2499,-0.2505,-0.252,-0.2526,-0.2561,-0.2534,-0.2531,-0.2531,-0.2527,-0.2486,-0.2476,-0.2449,-0.2428,-0.2423,-0.2437,-0.2397,-0.2378,-0.2379,-0.238,-0.2457,-0.2465,-0.2471,0,0,0,0,0,-0.2487,-0.2505,-0.2506,-0.2512,-0.2538,-0.2562,-0.2563,-0.255,-0.2533,-0.2536,-0.2508,-0.2477,-0.2432,-0.2428,-0.242,-0.2435,-0.2377,-0.2379,-0.238,-0.2454,-0.2463,-0.2471,0,0,0,0,0,0,-0.2468,-0.2503,-0.2504,-0.2529,-0.2545,-0.2555,-0.2558,-0.2553,-0.2537,-0.2526,-0.2489,-0.2479,-0.247,-0.2442,-0.2437,-0.2432,-0.2399,-0.2399,-0.2458,-0.2466,-0.2472,-0.2477,-0.2396,0,0,0,0,0,-0.2472,-0.2492,-0.2521,-0.2537,-0.255,-0.2554,-0.256,-0.2557,-0.2551,-0.2542,-0.2517,-0.2489,-0.2475,-0.2461,-0.2442,-0.244,-0.2415,-0.2443,-0.245,-0.2456,-0.2455,-0.2442,-0.2447,-0.2386,-0.2386,-0.2386,0,0,-0.2467,-0.2489,-0.2498,-0.2534,-0.2543,-0.2571,-0.2552,-0.2568,-0.2584,-0.2535,-0.2535,-0.2512,-0.248,-0.248,-0.2473,-0.2455,-0.2461,-0.2458,-0.2464,-0.2459,-0.2444,-0.245,-0.2455,-0.2388,-0.2387,-0.2387,0,0,-0.2474,-0.2491,-0.2514,-0.2537,-0.2564,-0.2575,-0.2583,-0.2598,-0.2596,-0.2602,-0.2573,-0.2561,-0.2533,-0.2523,-0.2511,-0.2544,-0.25,-0.2533,-0.2569,-0.2557,-0.2562,-0.2566,-0.2549,-0.2551,-0.2534,-0.2535,-0.2535,0,-0.2463,-0.2501,-0.2521,-0.2555,-0.2574,-0.2581,-0.2611,-0.2622,-0.2626,-0.2628,-0.2606,-0.2583,-0.2557,-0.2565,-0.2574,-0.256,-0.254,-0.2544,-0.2567,-0.257,-0.2573,-0.2554,-0.2555,-0.2539,-0.2538,-0.2538,-0.2537,0,-0.2494,-0.2525,-0.2541,-0.2588,-0.2613,-0.2637,-0.2668,-0.2681,-0.2676,-0.2681,-0.2681,-0.2655,-0.2636,-0.2634,-0.2612,-0.2624,-0.2599,-0.258,-0.2549,-0.2584,-0.2562,-0.2562,-0.2545,-0.2543,-0.2542,-0.2541,0,0,-0.2461,-0.2546,-0.2548,-0.2576,-0.2632,-0.2653,-0.2694,-0.2727,-0.2744,-0.2742,-0.2752,-0.2742,-0.272,-0.2706,-0.2682,-0.2675,-0.2682,-0.2637,-0.2634,-0.2625,-0.2649,-0.2557,-0.2548,-0.2665,-0.2665,-0.2665,-0.2629,0,-0.2471,-0.2535,-0.2579,-0.2631,-0.2664,-0.27,-0.2739,-0.2769,-0.278,-0.2792,-0.2778,-0.2775,-0.2751,-0.2739,-0.2732,-0.269,-0.2683,-0.2693,-0.2611,-0.2609,-0.2527,-0.2545,-0.2445,-0.2398,-0.2629,-0.2628,-0.2628,0,-0.2477,-0.2522,-0.2578,-0.2655,-0.2673,-0.2704,-0.2755,-0.2791,-0.2824,-0.2832,-0.2835,-0.2821,-0.2816,-0.2783,-0.2744,-0.2749,-0.2705,-0.2674,-0.2672,-0.2554,-0.2516,-0.2397,-0.2388,-0.2384,-0.2627,-0.2627,-0.2627,0,-0.2428,-0.2515,-0.2554,-0.2581,-0.2673,-0.2695,-0.2733,-0.2785,-0.2811,-0.2845,-0.2856,-0.2857,-0.2838,-0.2802,-0.2734,-0.274,-0.2673,-0.2675,-0.2556,-0.2549,-0.2431,-0.2412,-0.2408,-0.2645,-0.2645,-0.2645,-0.2646,0,-0.2418,-0.2446,-0.2529,-0.2551,-0.2584,-0.2663,-0.2696,-0.2739,-0.2797,-0.2825,-0.2857,-0.2861,-0.2839,-0.2798,-0.2744,-0.2634,-0.2679,-0.2559,-0.2532,-0.2455,-0.244,-0.2402,-0.2413,-0.2644,-0.2644,-0.2645,-0.2645,0,-0.235,-0.2418,-0.2453,-0.2538,-0.2559,-0.2571,-0.2654,-0.2695,-0.2757,-0.2792,-0.2804,-0.2849,-0.28,-0.2758,-0.2689,-0.2629,-0.2497,-0.2496,-0.2402,-0.2363,-0.2251,-0.2269,-0.2203,-0.2143,-0.2375,-0.2373,-0.2371,0,-0.2322,-0.2332,-0.2399,-0.2422,-0.2455,-0.2496,-0.2542,-0.2638,-0.2692,-0.2773,-0.279,-0.2774,-0.2723,-0.2593,-0.249,-0.2374,-0.2386,-0.2237,-0.2232,-0.2225,-0.2227,-0.2251,-0.2208,-0.2117,-0.2113,-0.211,-0.2107,0,-0.2241,-0.2255,-0.2291,-0.2318,-0.2361,-0.2399,-0.2472,-0.2506,-0.2631,-0.2656,-0.2664,-0.2621,-0.2536,-0.2366,-0.2237,-0.2164,-0.2185,-0.2164,-0.2183,-0.2041,-0.2039,-0.1973,-0.2171,-0.2078,-0.2081,-0.2083,-0.2084,-0.2085,-0.2153,-0.2143,-0.2174,-0.2191,-0.2243,-0.226,-0.2236,-0.2338,-0.235,-0.2342,-0.2454,-0.2315,-0.2276,-0.2064,-0.2007,-0.1892,-0.1943,-0.1851,-0.1881,-0.1912,-0.183,-0.1956,-0.1813,-0.1814,-0.1815,-0.1816,-0.1817,0,-0.203,-0.2034,-0.205,-0.2055,-0.2042,-0.2104,-0.216,-0.2096,-0.2047,-0.2054,-0.2013,-0.19,-0.1807,-0.1785,-0.1707,-0.1636,-0.1626,-0.1624,-0.1659,-0.1631,-0.1757,-0.1722,-0.1519,-0.1519,-0.1519,-0.1519,-0.1519,-0.1519,-0.1969,-0.193,-0.1931,-0.1833,-0.1835,-0.1733,-0.1714,-0.1643,-0.159,-0.1403,-0.1303,-0.1257,-0.1358,-0.1589,-0.1584,-0.1544,-0.1538,-0.1483,-0.1523,-0.165,-0.1676,-0.17,-0.1671,-0.1461,-0.1461,-0.1349,-0.1348,-0.1348]},{"header":{"parameterUnit":"m.s-1","parameterCategory":2,"la1":30.2991,"la2":30.254,"lo1":-89.0895,"lo2":-89.0444,"dy":0.0017,"dx":0.0017,"nx":28,"ny":28,"refTime":"2024-05-17T21:00:00:Z","depth":"0","parameterNumber":3,"parameterNumberName":"V-component_of_CURRENTS"},"data":[0,0,0,0,0,0,0,0,0,0,0,0,0,0,0,0,0,0,0,0,0,0,0,0,0,0,0,0,0,0,0,0,0,0,0,0,0,0,0,0,0,0,0,0,0,0,0,0,0,0,0,0,0,0,0,0,0,0,-0.0105,-0.0104,0,0.0006,0.0007,0.0009,0.0071,0.0071,0.0071,0.0071,0.02,0.0203,0.0207,0,0,0,0,0,0,0,0,0,0,0,0,0,-0.0184,-0.0184,-0.0105,-0.0104,-0.0102,0.0006,0.0007,0.0009,0.0071,0.0071,0.0071,0.0071,0.0199,0.0203,0.0207,0,0,0,0,0,0,0,0,0,0,0,0,0,-0.0118,-0.0183,-0.0105,-0.006,-0.0055,0.0005,0.0007,0.0009,0.0071,0.0071,0.0071,0.0071,0.0198,0.0203,0.0208,0.0239,0,0,0.0223,0.0226,0,0,0,0,0,0,0,0,-0.0122,-0.0115,-0.0068,-0.0063,-0.0057,0.0023,0.0027,0.0086,0.0071,0.0025,0.0071,0.0071,0.0141,0.0151,0.0174,0.0245,0.025,0.0224,0.0227,0.0229,0.0231,0,0,0,0,0,0,0,-0.0127,-0.0119,-0.0059,-0.0067,-0.006,-0.0019,-0.001,0.0039,0.0083,0.0029,0.0033,0.0043,0.0145,0.0169,0.0178,0.0252,0.0224,0.0228,0.0231,0.0233,0.0362,0.0363,0,0,0,0,0,0,-0.0148,-0.0124,-0.0063,-0.0056,-0.0092,-0.0018,-0.0007,-0.0001,0.0083,0.0095,0.0042,0.0045,0.016,0.0172,0.0182,0.0219,0.0229,0.0234,0.0237,0.0362,0.0362,0.0363,0,0,0,0,0,0,-0.015,-0.0144,-0.0067,-0.0088,-0.0076,-0.0017,-0.001,0.0001,0.0024,0.0092,0.0105,0.0054,0.0161,0.0175,0.0227,0.0225,0.0236,0.0241,0.0362,0.0362,0.0363,0.0296,0,0,0,0,0,0,-0.0153,-0.0145,-0.015,-0.009,-0.0076,-0.0043,-0.001,0.0003,0.0029,0.0034,0.0107,0.0119,0.0162,0.0219,0.0232,0.0232,0.0245,0.0361,0.0362,0.0362,0.0298,0.0294,0.0291,0,0,0,0,0,-0.0156,-0.0168,-0.015,-0.0143,-0.0083,-0.0044,-0.0033,0.0012,0.0029,0.0034,0.009,0.0116,0.0232,0.0223,0.0239,0.024,0.0361,0.0362,0.0362,0.0299,0.0295,0.0291,0,0,0,0,0,0,-0.0207,-0.016,-0.0141,-0.0138,-0.0099,-0.0034,-0.0029,0.0007,0.0055,0.0059,0.0126,0.0142,0.0185,0.0224,0.0213,0.028,0.0299,0.0303,0.0246,0.0243,0.0239,0.0218,0.0249,0,0,0,0,0,-0.022,-0.0217,-0.0162,-0.0162,-0.0146,-0.0087,-0.0066,-0.0034,0.0017,0.0038,0.0091,0.0148,0.0201,0.0229,0.0279,0.0318,0.0363,0.0329,0.0325,0.0322,0.0316,0.0384,0.0386,0.0365,0.0365,0.0365,0,0,-0.024,-0.0215,-0.0213,-0.0172,-0.0139,-0.0123,-0.0074,-0.005,-0.0031,0.0045,0.0082,0.0138,0.0209,0.0252,0.0275,0.0284,0.0353,0.0323,0.032,0.0315,0.0385,0.0387,0.0388,0.0366,0.0366,0.0366,0,0,-0.0285,-0.0257,-0.0271,-0.024,-0.0198,-0.0157,-0.0154,-0.0091,-0.0059,-0.0013,0.0046,0.0102,0.0177,0.0232,0.0269,0.0279,0.0332,0.0292,0.026,0.0325,0.0327,0.033,0.039,0.0399,0.0291,0.0291,0.0291,0,-0.0313,-0.0318,-0.0269,-0.0269,-0.0251,-0.0178,-0.0182,-0.0135,-0.0062,-0.0033,-0.0015,0.0113,0.0168,0.0238,0.0239,0.0271,0.0314,0.0266,0.032,0.0323,0.0326,0.0388,0.0398,0.0288,0.0288,0.0288,0.0288,0,-0.0364,-0.0363,-0.0368,-0.0344,-0.0316,-0.0307,-0.0238,-0.0203,-0.0155,-0.01,-0.0027,0.0059,0.0135,0.0163,0.0203,0.0258,0.0283,0.0305,0.0324,0.0324,0.039,0.0401,0.0283,0.0284,0.0285,0.0286,0,0,-0.0433,-0.0412,-0.0412,-0.0416,-0.0354,-0.0339,-0.0301,-0.0243,-0.0213,-0.0135,-0.0087,0.0008,0.0062,0.0108,0.0175,0.0232,0.0294,0.0269,0.0274,0.0318,0.0438,0.0514,0.0535,0.0324,0.0325,0.0327,0.0474,0,-0.0489,-0.0527,-0.0483,-0.0497,-0.0508,-0.0422,-0.0391,-0.0324,-0.025,-0.0182,-0.0077,-0.0009,0.0041,0.0079,0.0145,0.0265,0.0321,0.0252,0.044,0.0446,0.0505,0.0549,0.0642,0.0787,0.0486,0.0488,0.0489,0,-0.055,-0.0567,-0.0606,-0.058,-0.0573,-0.0561,-0.0492,-0.0452,-0.0329,-0.0269,-0.0174,-0.0081,0.0031,0.0064,0.0258,0.0211,0.0309,0.0396,0.0404,0.0505,0.0544,0.074,0.0819,0.0993,0.0507,0.0506,0.0504,0,-0.0641,-0.0646,-0.0687,-0.0677,-0.0634,-0.0625,-0.0592,-0.0488,-0.0445,-0.0322,-0.0271,-0.0121,-0.003,0.0103,0.0295,0.0274,0.0511,0.0509,0.0669,0.0676,0.0808,0.0824,0.1071,0.0628,0.0628,0.0627,0.0627,0,-0.0719,-0.0744,-0.0737,-0.0755,-0.0785,-0.0716,-0.0707,-0.0641,-0.0535,-0.0465,-0.033,-0.0224,-0.0017,0.0155,0.0295,0.0539,0.0518,0.0678,0.0727,0.0789,0.08,0.0999,0.103,0.0633,0.0632,0.063,0.0629,0,-0.0807,-0.0805,-0.0847,-0.0833,-0.0832,-0.0853,-0.0799,-0.0778,-0.0666,-0.0566,-0.0528,-0.0288,-0.0037,0.0174,0.0436,0.0561,0.088,0.0843,0.0903,0.0956,0.1249,0.1271,0.1486,0.1599,0.104,0.1043,0.1046,0,-0.0856,-0.0891,-0.0921,-0.0958,-0.0957,-0.097,-0.0969,-0.0866,-0.0817,-0.0581,-0.0529,-0.0258,-0.0004,0.041,0.0677,0.0958,0.1037,0.1169,0.1143,0.1301,0.1362,0.1328,0.1404,0.1295,0.13,0.1303,0.1306,0,-0.0939,-0.0949,-0.0988,-0.1069,-0.1099,-0.1116,-0.1091,-0.1064,-0.0896,-0.0742,-0.0459,-0.0225,0.0224,0.0657,0.1002,0.1146,0.1302,0.1248,0.1415,0.1589,0.1568,0.1689,0.1148,0.1337,0.1334,0.1332,0.133,0.1329,-0.0992,-0.1049,-0.1106,-0.1174,-0.1215,-0.123,-0.1209,-0.1091,-0.0947,-0.061,-0.0405,0.01,0.0639,0.1184,0.1331,0.1692,0.1575,0.1803,0.1818,0.1771,0.1882,0.1403,0.1639,0.1638,0.1636,0.1635,0.1634,0,-0.106,-0.1121,-0.1202,-0.1274,-0.132,-0.1311,-0.1256,-0.1124,-0.0878,-0.048,-0.0109,0.07,0.1227,0.1654,0.2122,0.2281,0.2256,0.2341,0.2338,0.2392,0.2006,0.2022,0.2351,0.2351,0.2351,0.235,0.235,0.235,-0.11,-0.1201,-0.1243,-0.134,-0.1376,-0.1365,-0.1313,-0.101,-0.0676,0.0003,0.0593,0.1016,0.1632,0.2331,0.2763,0.2774,0.2892,0.2831,0.2893,0.2651,0.2602,0.2555,0.2584,0.3025,0.3025,0.3299,0.3302,0.3304]}],[{"header":{"parameterUnit":"m.s-1","parameterCategory":2,"la1":30.2991,"la2":30.254,"lo1":-89.0895,"lo2":-89.0444,"dy":0.0017,"dx":0.0017,"nx":28,"ny":28,"refTime":"2024-05-17T21:00:00:Z","depth":"2","parameterNumber":2,"parameterNumberName":"U-component_of_CURRENTS"},"data":[0,0,0,0,0,0,0,0,0,0,0,0,0,0,0,0,0,0,0,0,0,0,0,0,0,0,0,0,0,0,0,0,0,0,0,0,0,0,0,0,0,0,0,0,0,0,0,0,0,0,0,0,0,0,0,0,0,0,-0.2497,-0.2497,0,-0.2505,-0.2505,-0.2505,-0.2462,-0.2461,-0.246,-0.2459,-0.2373,-0.2372,-0.2371,0,0,0,0,0,0,0,0,0,0,0,0,0,-0.2419,-0.242,-0.2497,-0.2497,-0.2498,-0.2505,-0.2505,-0.2505,-0.2462,-0.2461,-0.246,-0.2459,-0.2374,-0.2372,-0.237,0,0,0,0,0,0,0,0,0,0,0,0,0,-0.2439,-0.2421,-0.2497,-0.248,-0.2479,-0.2505,-0.2505,-0.2505,-0.2462,-0.2461,-0.246,-0.2458,-0.2374,-0.2372,-0.237,-0.2385,0,0,-0.2364,-0.2363,0,0,0,0,0,0,0,0,-0.2438,-0.2442,-0.2482,-0.2481,-0.248,-0.2484,-0.2446,-0.2461,-0.2463,-0.2465,-0.2459,-0.2458,-0.2405,-0.24,-0.2401,-0.2381,-0.2377,-0.2364,-0.2362,-0.2361,-0.2361,0,0,0,0,0,0,0,-0.2437,-0.2441,-0.2497,-0.2483,-0.2481,-0.2464,-0.2465,-0.2449,-0.2438,-0.2465,-0.2462,-0.2469,-0.2403,-0.2404,-0.2399,-0.2376,-0.2364,-0.2362,-0.236,-0.236,-0.2339,-0.2339,0,0,0,0,0,0,-0.2446,-0.244,-0.2497,-0.2497,-0.2459,-0.2466,-0.2468,-0.2481,-0.244,-0.2435,-0.247,-0.2467,-0.2408,-0.2401,-0.2396,-0.2402,-0.2361,-0.2359,-0.2358,-0.2338,-0.2339,-0.234,0,0,0,0,0,0,-0.2445,-0.2451,-0.2496,-0.2471,-0.2476,-0.247,-0.2485,-0.2482,-0.2476,-0.2447,-0.2438,-0.2467,-0.2407,-0.2398,-0.2382,-0.2398,-0.2358,-0.2356,-0.2337,-0.2338,-0.2339,-0.2419,0,0,0,0,0,0,-0.2442,-0.2451,-0.2458,-0.2472,-0.2478,-0.2512,-0.2487,-0.2484,-0.2485,-0.248,-0.2441,-0.2432,-0.2405,-0.2385,-0.238,-0.2394,-0.2355,-0.2336,-0.2338,-0.2339,-0.2416,-0.2423,-0.2429,0,0,0,0,0,-0.244,-0.2457,-0.2458,-0.2465,-0.249,-0.2514,-0.2514,-0.2502,-0.2486,-0.249,-0.2463,-0.2433,-0.239,-0.2385,-0.2378,-0.2392,-0.2335,-0.2337,-0.2339,-0.2413,-0.2422,-0.2429,0,0,0,0,0,0,-0.2421,-0.2455,-0.2456,-0.2481,-0.2497,-0.2507,-0.2511,-0.2506,-0.2491,-0.2481,-0.2444,-0.2434,-0.2426,-0.2399,-0.2394,-0.2389,-0.2357,-0.2357,-0.2415,-0.2423,-0.243,-0.2435,-0.2353,0,0,0,0,0,-0.2425,-0.2445,-0.2474,-0.2489,-0.2502,-0.2507,-0.2512,-0.2511,-0.2505,-0.2496,-0.2472,-0.2445,-0.2432,-0.2418,-0.2399,-0.2398,-0.2373,-0.2402,-0.2408,-0.2414,-0.2413,-0.24,-0.2406,-0.2345,-0.2345,-0.2345,0,0,-0.242,-0.2442,-0.2451,-0.2487,-0.2495,-0.2524,-0.2505,-0.2521,-0.2538,-0.249,-0.2491,-0.2468,-0.2437,-0.2437,-0.243,-0.2413,-0.242,-0.2416,-0.2422,-0.2417,-0.2402,-0.2408,-0.2413,-0.2346,-0.2346,-0.2346,0,0,-0.2428,-0.2444,-0.2467,-0.249,-0.2517,-0.2529,-0.2536,-0.2552,-0.255,-0.2557,-0.2529,-0.2518,-0.2491,-0.248,-0.2469,-0.2501,-0.2458,-0.2491,-0.2527,-0.2515,-0.252,-0.2524,-0.2508,-0.251,-0.2493,-0.2493,-0.2493,0,-0.2418,-0.2455,-0.2474,-0.2508,-0.2527,-0.2535,-0.2565,-0.2576,-0.2581,-0.2583,-0.2562,-0.254,-0.2514,-0.2522,-0.2532,-0.2518,-0.2498,-0.2502,-0.2525,-0.2528,-0.2531,-0.2513,-0.2514,-0.2497,-0.2496,-0.2496,-0.2496,0,-0.2448,-0.2479,-0.2494,-0.2541,-0.2566,-0.259,-0.2621,-0.2635,-0.2631,-0.2636,-0.2638,-0.2612,-0.2593,-0.2592,-0.257,-0.2582,-0.2558,-0.2538,-0.2507,-0.2542,-0.2521,-0.252,-0.2503,-0.2501,-0.25,-0.2499,0,0,-0.2416,-0.25,-0.2502,-0.253,-0.2585,-0.2606,-0.2648,-0.2681,-0.2698,-0.2697,-0.2708,-0.2699,-0.2677,-0.2663,-0.264,-0.2632,-0.264,-0.2595,-0.2592,-0.2584,-0.2608,-0.2517,-0.2507,-0.2623,-0.2623,-0.2623,-0.2588,0,-0.2426,-0.249,-0.2533,-0.2585,-0.2618,-0.2654,-0.2692,-0.2723,-0.2735,-0.2748,-0.2734,-0.2732,-0.2708,-0.2697,-0.269,-0.2648,-0.2641,-0.2651,-0.257,-0.2568,-0.2487,-0.2505,-0.2285,-0.2229,-0.2588,-0.2587,-0.2587,0,-0.2433,-0.2477,-0.2533,-0.2609,-0.2627,-0.2658,-0.2711,-0.2746,-0.278,-0.2789,-0.2792,-0.2779,-0.2774,-0.2741,-0.2702,-0.2707,-0.2664,-0.2633,-0.263,-0.2514,-0.2475,-0.2249,-0.2214,-0.2586,-0.2586,-0.2586,-0.2586,0,-0.2384,-0.2471,-0.251,-0.2537,-0.2628,-0.2651,-0.269,-0.2742,-0.2768,-0.2803,-0.2814,-0.2815,-0.2797,-0.2761,-0.2693,-0.2699,-0.2633,-0.2634,-0.2516,-0.251,-0.2289,-0.2262,-0.2604,-0.2604,-0.2604,-0.2605,-0.2605,0,-0.2375,-0.2404,-0.2487,-0.2509,-0.2543,-0.2621,-0.2655,-0.2698,-0.2756,-0.2784,-0.2816,-0.282,-0.2798,-0.2757,-0.2704,-0.2595,-0.2639,-0.2519,-0.2492,-0.2311,-0.2288,-0.2567,-0.2564,-0.2603,-0.2603,-0.2604,-0.2604,0,-0.2309,-0.2376,-0.2412,-0.2497,-0.2518,-0.2532,-0.2615,-0.2655,-0.2718,-0.2753,-0.2765,-0.2809,-0.2761,-0.2719,-0.265,-0.259,-0.2509,-0.2458,-0.2245,-0.2193,-0.2399,-0.24,-0.2345,-0.2341,-0.2338,-0.2336,-0.2334,0,-0.2282,-0.2292,-0.236,-0.2383,-0.2417,-0.2459,-0.2505,-0.26,-0.2654,-0.2734,-0.2751,-0.2735,-0.2679,-0.2551,-0.2424,-0.2302,-0.241,-0.2076,-0.2055,-0.2392,-0.2372,-0.2377,-0.2382,-0.1799,-0.1792,-0.1787,-0.1783,0,-0.2202,-0.2217,-0.2253,-0.2281,-0.2326,-0.2364,-0.2436,-0.247,-0.2593,-0.261,-0.2618,-0.2571,-0.2467,-0.2222,-0.2084,-0.2001,-0.2082,-0.1969,-0.2352,-0.1905,-0.1875,-0.1857,-0.1879,-0.1737,-0.1742,-0.1745,-0.1747,-0.1749,-0.2117,-0.2107,-0.2139,-0.2157,-0.2209,-0.2226,-0.2202,-0.227,-0.227,-0.2213,-0.2355,-0.216,-0.2159,-0.1769,-0.1694,-0.162,-0.1766,-0.1698,-0.1715,-0.1736,-0.1686,-0.1653,-0.1464,-0.1466,-0.1469,-0.1471,-0.1473,0,-0.1982,-0.2,-0.2017,-0.2023,-0.1996,-0.2073,-0.2127,-0.2018,-0.1916,-0.1891,-0.18,-0.1556,-0.1389,-0.1392,-0.1183,-0.1191,-0.119,-0.1178,-0.1165,-0.1209,-0.1248,-0.1176,-0.0817,-0.0815,-0.0814,-0.0813,0,0,-0.1919,-0.1875,-0.1875,-0.1773,-0.1788,-0.1652,-0.1631,-0.1482,-0.1391,-0.1178,-0.1056,-0.1106,-0.1227,-0.0957,-0.0964,-0.0842,-0.101,-0.08,-0.1311,-0.1328,-0.1366,-0.152,-0.1453,0,0,0,0,0]},{"header":{"parameterUnit":"m.s-1","parameterCategory":2,"la1":30.2991,"la2":30.254,"lo1":-89.0895,"lo2":-89.0444,"dy":0.0017,"dx":0.0017,"nx":28,"ny":28,"refTime":"2024-05-17T21:00:00:Z","depth":"2","parameterNumber":3,"parameterNumberName":"V-component_of_CURRENTS"},"data":[0,0,0,0,0,0,0,0,0,0,0,0,0,0,0,0,0,0,0,0,0,0,0,0,0,0,0,0,0,0,0,0,0,0,0,0,0,0,0,0,0,0,0,0,0,0,0,0,0,0,0,0,0,0,0,0,0,0,-0.0161,-0.016,0,-0.0052,-0.0051,-0.0049,0.0013,0.0013,0.0013,0.0013,0.0143,0.0146,0.0149,0,0,0,0,0,0,0,0,0,0,0,0,0,-0.0239,-0.0238,-0.0161,-0.016,-0.0159,-0.0052,-0.0051,-0.0049,0.0013,0.0013,0.0013,0.0013,0.0142,0.0146,0.015,0,0,0,0,0,0,0,0,0,0,0,0,0,-0.0173,-0.0238,-0.0162,-0.0116,-0.0111,-0.0053,-0.0051,-0.0049,0.0013,0.0013,0.0013,0.0013,0.014,0.0145,0.015,0.018,0,0,0.0166,0.0168,0,0,0,0,0,0,0,0,-0.0177,-0.0171,-0.0124,-0.0119,-0.0114,-0.0035,-0.0031,0.0028,0.0013,-0.0032,0.0013,0.0013,0.0084,0.0094,0.0116,0.0186,0.0191,0.0166,0.0169,0.0172,0.0173,0,0,0,0,0,0,0,-0.0182,-0.0174,-0.0116,-0.0123,-0.0117,-0.0075,-0.0066,-0.0019,0.0026,-0.0028,-0.0024,-0.0015,0.0087,0.0111,0.012,0.0193,0.0166,0.0171,0.0174,0.0176,0.0304,0.0304,0,0,0,0,0,0,-0.0203,-0.0179,-0.012,-0.0113,-0.0148,-0.0074,-0.0064,-0.0059,0.0025,0.0037,-0.0015,-0.0012,0.0103,0.0114,0.0125,0.0163,0.0171,0.0176,0.0179,0.0304,0.0304,0.0305,0,0,0,0,0,0,-0.0205,-0.0199,-0.0124,-0.0145,-0.0133,-0.0074,-0.0067,-0.0057,-0.0033,0.0035,0.0048,-0.0003,0.0103,0.0118,0.0169,0.0168,0.0179,0.0183,0.0303,0.0304,0.0304,0.0241,0,0,0,0,0,0,-0.0208,-0.0201,-0.0205,-0.0147,-0.0132,-0.01,-0.0067,-0.0055,-0.0028,-0.0023,0.0049,0.0062,0.0104,0.0161,0.0174,0.0176,0.0187,0.0303,0.0304,0.0304,0.0242,0.0239,0.0236,0,0,0,0,0,-0.0211,-0.0223,-0.0206,-0.0198,-0.014,-0.0101,-0.009,-0.0046,-0.0028,-0.0023,0.0033,0.0059,0.0174,0.0166,0.0181,0.0184,0.0302,0.0303,0.0304,0.0244,0.024,0.0236,0,0,0,0,0,0,-0.0261,-0.0216,-0.0196,-0.0194,-0.0155,-0.0091,-0.0085,-0.0051,-0.0002,0.0002,0.0068,0.0085,0.0128,0.0167,0.0156,0.0224,0.0241,0.0245,0.019,0.0187,0.0184,0.0163,0.0191,0,0,0,0,0,-0.0274,-0.0271,-0.0217,-0.0217,-0.0202,-0.0143,-0.0122,-0.0091,-0.004,-0.0018,0.0034,0.0091,0.0144,0.0173,0.0222,0.0261,0.0305,0.0272,0.0269,0.0266,0.026,0.0328,0.033,0.0307,0.0307,0.0307,0,0,-0.0293,-0.0269,-0.0267,-0.0227,-0.0195,-0.0178,-0.013,-0.0106,-0.0086,-0.0012,0.0026,0.0082,0.0153,0.0196,0.0219,0.0228,0.0297,0.0267,0.0264,0.026,0.0329,0.0331,0.0333,0.0308,0.0308,0.0308,0,0,-0.0338,-0.031,-0.0324,-0.0293,-0.0252,-0.0211,-0.0207,-0.0146,-0.0114,-0.0067,-0.0008,0.0048,0.0123,0.0177,0.0214,0.0225,0.0277,0.0238,0.0208,0.0273,0.0275,0.0278,0.0337,0.0345,0.0237,0.0237,0.0237,0,-0.0365,-0.0371,-0.0322,-0.0322,-0.0303,-0.0231,-0.0235,-0.0188,-0.0115,-0.0086,-0.0069,0.006,0.0115,0.0184,0.0186,0.0217,0.026,0.0213,0.0268,0.0271,0.0275,0.0335,0.0345,0.0234,0.0235,0.0235,0.0235,0,-0.0415,-0.0414,-0.0419,-0.0394,-0.0366,-0.0357,-0.0288,-0.0253,-0.0205,-0.0151,-0.0077,0.0009,0.0084,0.0112,0.0152,0.0208,0.0232,0.0253,0.0272,0.0273,0.0337,0.0348,0.023,0.0231,0.0232,0.0233,0,0,-0.0484,-0.0462,-0.0462,-0.0464,-0.0403,-0.0388,-0.0349,-0.0291,-0.026,-0.0183,-0.0134,-0.0039,0.0014,0.006,0.0127,0.0184,0.0246,0.0219,0.0224,0.0268,0.0388,0.046,0.048,0.0276,0.0277,0.0279,0.0423,0,-0.0538,-0.0574,-0.053,-0.0543,-0.0553,-0.0468,-0.0436,-0.0369,-0.0295,-0.0228,-0.0123,-0.0055,-0.0005,0.0033,0.0099,0.0217,0.0273,0.0205,0.039,0.0395,0.0451,0.0495,0.0334,0.0454,0.0434,0.0436,0.0437,0,-0.0598,-0.0613,-0.0651,-0.0624,-0.0617,-0.0603,-0.0534,-0.0494,-0.0372,-0.0312,-0.0216,-0.0125,-0.0013,0.0019,0.0212,0.0166,0.0262,0.0347,0.0355,0.0452,0.0489,0.0451,0.0476,0.0457,0.0456,0.0454,0.0453,0,-0.0687,-0.069,-0.0729,-0.072,-0.0676,-0.0666,-0.0633,-0.0528,-0.0486,-0.0363,-0.0313,-0.0164,-0.0074,0.0059,0.0248,0.0228,0.0461,0.046,0.0615,0.0621,0.0536,0.0532,0.0578,0.0578,0.0577,0.0577,0.0577,0,-0.0763,-0.0787,-0.0779,-0.0796,-0.0824,-0.0756,-0.0745,-0.068,-0.0574,-0.0505,-0.0371,-0.0267,-0.0061,0.0109,0.0247,0.0487,0.0468,0.0623,0.0671,0.0511,0.0505,0.0545,0.0539,0.0583,0.0581,0.058,0.0579,0,-0.0849,-0.0846,-0.0887,-0.0872,-0.0871,-0.0891,-0.0837,-0.0816,-0.0705,-0.0606,-0.0569,-0.0332,-0.0086,0.0124,0.0383,0.0506,0.0705,0.0784,0.059,0.0613,0.0814,0.0803,0.0968,0.0972,0.0976,0.0978,0.0981,0,-0.0897,-0.0931,-0.096,-0.0996,-0.0994,-0.1007,-0.1006,-0.0904,-0.0855,-0.0623,-0.0573,-0.0307,-0.0068,0.0339,0.054,0.08,0.0828,0.0837,0.0779,0.0829,0.0858,0.0842,0.0827,0.0631,0.0631,0.063,0.063,0,-0.0978,-0.0988,-0.1027,-0.1106,-0.1135,-0.1152,-0.1128,-0.1102,-0.0936,-0.0794,-0.0518,-0.0299,0.0083,0.0351,0.0665,0.0785,0.0782,0.084,0.0945,0.0575,0.0528,0.0551,0.0544,0.0624,0.0625,0.0625,0.0626,0.0626,-0.103,-0.1087,-0.1143,-0.121,-0.125,-0.1267,-0.1247,-0.1178,-0.1051,-0.0824,-0.0575,-0.025,0.0032,0.0447,0.0659,0.081,0.0841,0.0852,0.0846,0.0842,0.0795,0.0759,0.0888,0.089,0.0892,0.0893,0.0895,0,-0.1098,-0.1158,-0.1238,-0.1309,-0.1357,-0.1346,-0.1294,-0.1239,-0.1071,-0.0875,-0.0608,-0.0266,0.0029,0.0339,0.0551,0.0753,0.0667,0.0794,0.0614,0.0617,0.062,0.0555,0.0589,0.0589,0.059,0.059,0,0,-0.1138,-0.1237,-0.1279,-0.1378,-0.1414,-0.1428,-0.1379,-0.1261,-0.111,-0.0871,-0.0648,-0.0426,0.0016,0.0121,0.0329,0.0463,0.0484,0.0457,0.0663,0.0418,0.0419,0.06,0.0499,0,0,0,0,0]}],[{"header":{"parameterUnit":"m.s-1","parameterCategory":2,"la1":30.2991,"la2":30.254,"lo1":-89.0895,"lo2":-89.0444,"dy":0.0017,"dx":0.0017,"nx":28,"ny":28,"refTime":"2024-05-17T21:00:00:Z","depth":"4","parameterNumber":2,"parameterNumberName":"U-component_of_CURRENTS"},"data":[0,0,0,0,0,0,0,0,0,0,0,0,0,0,0,0,0,0,0,0,0,0,0,0,0,0,0,0,0,0,0,0,0,0,0,0,0,0,0,0,0,0,0,0,0,0,0,0,0,0,0,0,0,0,0,0,0,0,-0.1517,-0.1518,0,-0.1581,-0.1581,-0.1582,-0.1605,-0.1605,-0.1605,-0.1605,-0.1629,-0.163,-0.163,0,0,0,0,0,0,0,0,0,0,0,0,0,-0.1409,-0.141,-0.1517,-0.1518,-0.1519,-0.1581,-0.1581,-0.1582,-0.1605,-0.1605,-0.1605,-0.1606,-0.1629,-0.163,-0.163,0,0,0,0,0,0,0,0,0,0,0,0,0,-0.1459,-0.1411,-0.1517,-0.1541,-0.1544,-0.1581,-0.1581,-0.1582,-0.1605,-0.1605,-0.1605,-0.1606,-0.1629,-0.163,-0.163,-0.1632,0,0,-0.1633,-0.1633,0,0,0,0,0,0,0,0,-0.1456,-0.1463,-0.1536,-0.1539,-0.1543,-0.1588,-0.1552,-0.1598,-0.1605,-0.1578,-0.1605,-0.1606,-0.1614,-0.1616,-0.1623,-0.1633,-0.1634,-0.1633,-0.1633,-0.1634,-0.1634,0,0,0,0,0,0,0,-0.1453,-0.146,-0.1539,-0.1537,-0.1541,-0.1546,-0.1553,-0.1561,-0.1591,-0.1581,-0.1583,-0.1596,-0.1615,-0.1622,-0.1624,-0.1635,-0.1633,-0.1634,-0.1634,-0.1634,-0.1709,-0.1711,0,0,0,0,0,0,-0.1452,-0.1457,-0.1537,-0.1541,-0.1503,-0.1548,-0.1556,-0.1571,-0.1592,-0.1597,-0.1596,-0.1597,-0.1621,-0.1623,-0.1625,-0.1698,-0.1634,-0.1634,-0.1635,-0.1708,-0.171,-0.1711,0,0,0,0,0,0,-0.145,-0.1459,-0.1534,-0.1503,-0.1513,-0.1551,-0.1566,-0.1572,-0.1605,-0.1604,-0.1608,-0.1626,-0.1621,-0.1624,-0.166,-0.1697,-0.1635,-0.1636,-0.1706,-0.1709,-0.1711,-0.18,0,0,0,0,0,0,-0.1446,-0.1458,-0.1478,-0.1503,-0.1515,-0.1575,-0.1567,-0.1573,-0.1613,-0.1615,-0.1631,-0.1632,-0.1622,-0.1659,-0.1661,-0.1697,-0.1636,-0.1704,-0.1707,-0.171,-0.1795,-0.1805,-0.1814,0,0,0,0,0,-0.1442,-0.1465,-0.1479,-0.1489,-0.1539,-0.1577,-0.1584,-0.1607,-0.1614,-0.1636,-0.1651,-0.1633,-0.1678,-0.1661,-0.1663,-0.17,-0.1703,-0.1706,-0.171,-0.1791,-0.1803,-0.1813,0,0,0,0,0,0,-0.1427,-0.1471,-0.1486,-0.1522,-0.1557,-0.1583,-0.1609,-0.1625,-0.1654,-0.1664,-0.1656,-0.1658,-0.1702,-0.1688,-0.167,-0.1729,-0.1686,-0.169,-0.1748,-0.1759,-0.1768,-0.1764,-0.1637,0,0,0,0,0,-0.1434,-0.1465,-0.1505,-0.1536,-0.1557,-0.1589,-0.1612,-0.1633,-0.1658,-0.1673,-0.1686,-0.1698,-0.1713,-0.1727,-0.1735,-0.1771,-0.1743,-0.1794,-0.1803,-0.1811,-0.1809,-0.1804,-0.1812,-0.1723,-0.1723,-0.1723,0,0,-0.1437,-0.1466,-0.1484,-0.1536,-0.1565,-0.1609,-0.1603,-0.165,-0.1693,-0.1669,-0.1732,-0.1734,-0.173,-0.177,-0.1788,-0.1768,-0.1824,-0.1815,-0.1822,-0.1816,-0.1808,-0.1817,-0.1825,-0.1725,-0.1725,-0.1724,0,0,-0.1454,-0.1486,-0.152,-0.1558,-0.1615,-0.1639,-0.166,-0.1707,-0.1735,-0.179,-0.1784,-0.181,-0.1839,-0.1844,-0.1847,-0.1911,-0.1872,-0.1917,-0.1965,-0.1961,-0.1968,-0.1974,-0.1956,-0.196,-0.1923,-0.1924,-0.1924,0,-0.1457,-0.1507,-0.1535,-0.1583,-0.1623,-0.1657,-0.1708,-0.1743,-0.1799,-0.1823,-0.1823,-0.1871,-0.1872,-0.1911,-0.1935,-0.1933,-0.1916,-0.1926,-0.1973,-0.1978,-0.1982,-0.1962,-0.1965,-0.1928,-0.1928,-0.1927,-0.1927,0,-0.1497,-0.1551,-0.1576,-0.1649,-0.1693,-0.1744,-0.1799,-0.1847,-0.1883,-0.191,-0.1966,-0.197,-0.1991,-0.2003,-0.1991,-0.203,-0.2004,-0.1984,-0.1944,-0.1997,-0.1972,-0.1974,-0.1935,-0.1933,-0.1932,-0.1931,0,0,-0.1461,-0.1582,-0.1593,-0.1646,-0.1737,-0.1774,-0.1853,-0.1922,-0.1967,-0.2017,-0.2064,-0.2099,-0.2094,-0.2097,-0.2088,-0.2091,-0.2114,-0.2058,-0.2056,-0.2039,-0.2098,-0.1948,-0.1934,-0.2105,-0.2105,-0.2106,-0.207,0,-0.1486,-0.1584,-0.1641,-0.174,-0.1794,-0.1861,-0.1927,-0.1995,-0.2042,-0.2094,-0.211,-0.2147,-0.2133,-0.2144,-0.215,-0.212,-0.212,-0.2125,-0.2049,-0.2047,-0.1906,-0.1932,-0.2108,-0.207,-0.207,-0.2071,-0.2071,0,-0.1497,-0.1568,-0.167,-0.1793,-0.1823,-0.1887,-0.199,-0.2055,-0.2129,-0.2163,-0.2201,-0.2208,-0.2232,-0.2204,-0.2187,-0.2191,-0.2154,-0.2126,-0.2124,-0.1949,-0.1898,-0.2004,-0.2072,-0.2072,-0.2072,-0.2072,-0.2072,0,-0.1444,-0.1581,-0.1665,-0.171,-0.1852,-0.191,-0.198,-0.2072,-0.212,-0.2199,-0.2226,-0.226,-0.2264,-0.2242,-0.2185,-0.2194,-0.214,-0.2141,-0.1973,-0.1962,-0.2069,-0.2063,-0.2123,-0.2123,-0.2123,-0.2123,-0.2123,0,-0.1432,-0.15,-0.1652,-0.1698,-0.1789,-0.1896,-0.1982,-0.2054,-0.2142,-0.218,-0.2249,-0.2251,-0.2272,-0.2242,-0.2198,-0.207,-0.2148,-0.1974,-0.194,-0.2108,-0.2107,-0.207,-0.2064,-0.2122,-0.2122,-0.2123,-0.2123,0,-0.1355,-0.1462,-0.1559,-0.1718,-0.1767,-0.1827,-0.1967,-0.2021,-0.2118,-0.2164,-0.2188,-0.2244,-0.2196,-0.2185,-0.2131,-0.2055,-0.197,-0.1905,-0.2076,-0.2053,-0.1799,-0.1798,-0.1728,-0.1723,-0.1718,-0.1714,-0.171,0,-0.1323,-0.1368,-0.1538,-0.1593,-0.1671,-0.1777,-0.1846,-0.1981,-0.203,-0.2125,-0.2127,-0.2129,-0.2137,-0.193,-0.195,-0.1853,-0.1824,-0.1786,-0.1807,-0.1783,-0.1758,-0.1765,-0.1771,-0.1703,-0.1702,-0.17,-0.1699,0,-0.1249,-0.1318,-0.1401,-0.1499,-0.1589,-0.167,-0.1777,-0.179,-0.1926,-0.2047,-0.1984,-0.1936,-0.1873,-0.1811,-0.1739,-0.1677,-0.182,-0.1737,-0.1747,-0.1766,-0.1751,-0.1732,-0.1744,-0.1682,-0.1685,-0.1686,-0.1687,0,-0.1182,-0.121,-0.131,-0.1383,-0.1486,-0.1512,-0.1591,-0.1638,-0.1688,-0.1818,-0.1783,-0.1781,-0.184,-0.1716,-0.1651,-0.1574,-0.1559,-0.1519,-0.1541,-0.1559,-0.1519,-0.1476,-0.1284,0,0,0,0,0,-0.1104,-0.1121,-0.1183,-0.1251,-0.1343,-0.138,-0.1524,-0.1607,-0.1745,-0.1653,-0.171,-0.164,-0.1538,-0.1544,-0.1423,-0.1576,-0.1566,-0.1434,-0.1534,-0.159,-0.161,-0.1577,0,0,0,0,0,0,-0.1056,-0.1108,-0.1132,-0.111,-0.1119,-0.1186,-0.1255,-0.1356,-0.1322,-0.1465,-0.1408,-0.1528,-0.1444,-0.1547,-0.1373,-0.1378,-0.1407,-0.146,-0.1456,-0.1579,-0.1597,-0.1612,-0.1585,0,0,0,0,0]},{"header":{"parameterUnit":"m.s-1","parameterCategory":2,"la1":30.2991,"la2":30.254,"lo1":-89.0895,"lo2":-89.0444,"dy":0.0017,"dx":0.0017,"nx":28,"ny":28,"refTime":"2024-05-17T21:00:00:Z","depth":"4","parameterNumber":3,"parameterNumberName":"V-component_of_CURRENTS"},"data":[0,0,0,0,0,0,0,0,0,0,0,0,0,0,0,0,0,0,0,0,0,0,0,0,0,0,0,0,0,0,0,0,0,0,0,0,0,0,0,0,0,0,0,0,0,0,0,0,0,0,0,0,0,0,0,0,0,0,-0.0368,-0.0368,0,-0.0299,-0.0298,-0.0297,-0.0257,-0.0257,-0.0257,-0.0257,-0.0154,-0.0151,-0.0148,0,0,0,0,0,0,0,0,0,0,0,0,0,-0.0404,-0.0404,-0.0368,-0.0367,-0.0367,-0.0299,-0.0298,-0.0297,-0.0257,-0.0257,-0.0257,-0.0257,-0.0155,-0.0151,-0.0148,0,0,0,0,0,0,0,0,0,0,0,0,0,-0.0365,-0.0404,-0.0368,-0.034,-0.0337,-0.03,-0.0298,-0.0297,-0.0257,-0.0257,-0.0257,-0.0257,-0.0156,-0.0152,-0.0148,-0.0121,0,0,-0.0135,-0.0133,0,0,0,0,0,0,0,0,-0.0368,-0.0364,-0.0345,-0.0342,-0.0339,-0.0289,-0.0273,-0.0237,-0.0257,-0.0285,-0.0257,-0.0257,-0.0197,-0.019,-0.0174,-0.0116,-0.0112,-0.0135,-0.0132,-0.013,-0.0129,0,0,0,0,0,0,0,-0.037,-0.0366,-0.0339,-0.0344,-0.034,-0.031,-0.0305,-0.0266,-0.0239,-0.0283,-0.028,-0.0276,-0.0195,-0.0178,-0.0171,-0.011,-0.0135,-0.0131,-0.0128,-0.0127,-0.0003,-0.0002,0,0,0,0,0,0,-0.0386,-0.0369,-0.0341,-0.0337,-0.0356,-0.031,-0.0304,-0.0303,-0.024,-0.0232,-0.0276,-0.0274,-0.0185,-0.0176,-0.0167,-0.0118,-0.013,-0.0126,-0.0124,-0.0004,-0.0003,-0.0002,0,0,0,0,0,0,-0.0387,-0.0385,-0.0344,-0.0353,-0.0346,-0.031,-0.0308,-0.0302,-0.0286,-0.0236,-0.0226,-0.0269,-0.0185,-0.0173,-0.0128,-0.0114,-0.0124,-0.0121,-0.0005,-0.0004,-0.0003,-0.0028,0,0,0,0,0,0,-0.0389,-0.0385,-0.0392,-0.0354,-0.0346,-0.0327,-0.0308,-0.03,-0.0285,-0.0282,-0.0226,-0.0217,-0.0184,-0.0134,-0.0124,-0.0108,-0.0117,-0.0006,-0.0004,-0.0003,-0.0028,-0.0027,-0.0027,0,0,0,0,0,-0.039,-0.0401,-0.0393,-0.039,-0.0356,-0.0327,-0.032,-0.0293,-0.0285,-0.0279,-0.0236,-0.0219,-0.0117,-0.013,-0.0118,-0.0101,-0.0007,-0.0005,-0.0003,-0.0028,-0.0027,-0.0027,0,0,0,0,0,0,-0.0423,-0.0397,-0.0387,-0.0391,-0.0364,-0.0321,-0.0319,-0.0297,-0.0259,-0.0257,-0.0208,-0.0195,-0.015,-0.0122,-0.0137,-0.0061,-0.0059,-0.0055,-0.0082,-0.0081,-0.0081,-0.0098,-0.0114,0,0,0,0,0,-0.0434,-0.0436,-0.0401,-0.0406,-0.0395,-0.0357,-0.0344,-0.0323,-0.0285,-0.0269,-0.0228,-0.0181,-0.0132,-0.0106,-0.0064,-0.0022,0.0004,-0.0003,-0.0003,-0.0003,-0.0008,0.0052,0.0057,0.0004,0.0004,0.0004,0,0,-0.045,-0.0436,-0.0438,-0.0413,-0.0392,-0.0374,-0.0349,-0.0332,-0.031,-0.0263,-0.0224,-0.0181,-0.0121,-0.0073,-0.005,-0.0048,0.0026,-0.0001,-0.0001,-0.0006,0.0055,0.006,0.0064,0.0005,0.0005,0.0004,0,0,-0.0479,-0.0469,-0.0477,-0.0453,-0.0425,-0.0395,-0.0393,-0.0349,-0.0323,-0.028,-0.0236,-0.0185,-0.012,-0.0068,-0.0033,-0.0005,0.0024,0.0006,-0.0002,0.0056,0.0061,0.0065,0.0098,0.0106,0.0009,0.0009,0.0009,0,-0.05,-0.0501,-0.0474,-0.0467,-0.0453,-0.0407,-0.0402,-0.0364,-0.0308,-0.0283,-0.0274,-0.016,-0.0114,-0.0038,-0.0029,-0.0004,0.0021,-0.001,0.0056,0.0061,0.0066,0.0099,0.0107,0.0008,0.0008,0.0008,0.0008,0,-0.0524,-0.0522,-0.0524,-0.05,-0.0478,-0.0468,-0.0414,-0.0385,-0.035,-0.0307,-0.0236,-0.0166,-0.01,-0.007,-0.004,0.0024,0.0027,0.0046,0.005,0.0069,0.0103,0.0112,0.0006,0.0007,0.0007,0.0007,0,0,-0.0572,-0.0549,-0.0549,-0.0546,-0.0495,-0.0483,-0.044,-0.0388,-0.0362,-0.0295,-0.025,-0.0156,-0.0121,-0.008,-0.0027,0.0027,0.0084,0.0044,0.0048,0.0067,0.0194,0.0148,0.0154,0.0113,0.0114,0.0116,0.02,0,-0.0599,-0.061,-0.0578,-0.0574,-0.0573,-0.0514,-0.048,-0.0424,-0.0368,-0.0312,-0.022,-0.0162,-0.0121,-0.0092,-0.0028,0.0059,0.0109,0.0058,0.018,0.0183,0.0134,0.0164,0.0121,0.0207,0.0209,0.0211,0.0212,0,-0.0625,-0.0631,-0.0644,-0.0618,-0.0611,-0.0598,-0.0543,-0.0505,-0.0406,-0.036,-0.0278,-0.0207,-0.0106,-0.0083,0.0072,0.0036,0.0106,0.017,0.0176,0.0146,0.0156,0.0188,0.023,0.0228,0.0227,0.0226,0.0225,0,-0.0678,-0.067,-0.0689,-0.068,-0.0642,-0.0636,-0.0611,-0.0529,-0.0497,-0.0395,-0.036,-0.0228,-0.0164,-0.0048,0.0083,0.008,0.0243,0.0259,0.0285,0.0282,0.0308,0.0302,0.036,0.036,0.036,0.036,0.036,0,-0.071,-0.0724,-0.0725,-0.0734,-0.0754,-0.0702,-0.0697,-0.0644,-0.0567,-0.0525,-0.0401,-0.0337,-0.0152,-0.0033,0.0078,0.0205,0.0243,0.0284,0.0306,0.0294,0.0286,0.0314,0.0307,0.0363,0.0362,0.0362,0.0361,0,-0.0752,-0.0753,-0.0781,-0.0776,-0.0782,-0.0798,-0.0774,-0.0759,-0.0678,-0.0617,-0.0587,-0.0411,-0.0254,-0.0082,0.0115,0.0188,0.0319,0.0352,0.0312,0.0329,0.0319,0.031,0.0391,0.039,0.039,0.0389,0.0389,0,-0.077,-0.0791,-0.0831,-0.0867,-0.0872,-0.0891,-0.0898,-0.083,-0.08,-0.0661,-0.0629,-0.0463,-0.0338,-0.009,0.0082,0.0287,0.0311,0.0368,0.0358,0.0311,0.0325,0.0318,0.031,0.0387,0.0387,0.0387,0.0387,0,-0.0801,-0.0826,-0.0854,-0.0933,-0.0971,-0.0997,-0.0996,-0.0981,-0.0878,-0.081,-0.0653,-0.0493,-0.0317,-0.0106,0.0052,0.0199,0.0328,0.0361,0.0364,0.0355,0.0308,0.0321,0.0314,0.0385,0.0385,0.0385,0.0385,0,-0.0827,-0.0868,-0.0922,-0.098,-0.1043,-0.1075,-0.107,-0.101,-0.0962,-0.0787,-0.0741,-0.0519,-0.0371,-0.0152,-0.0005,0.0133,0.0166,0.02,0.0211,0.0216,0.0136,0.0049,0.0067,0,0,0,0,0,-0.0843,-0.0892,-0.0961,-0.1027,-0.109,-0.1117,-0.1113,-0.1085,-0.0987,-0.0889,-0.0805,-0.0632,-0.0371,-0.0243,-0.0114,-0.0045,0.0163,0.0105,0.0201,0.0372,0.0374,0.0306,0,0,0,0,0,0,-0.0858,-0.0929,-0.0963,-0.1048,-0.1096,-0.1151,-0.1152,-0.1093,-0.1016,-0.0899,-0.0756,-0.0628,-0.0377,-0.0448,-0.0118,-0.0072,-0.0002,0.0248,0.0249,0.037,0.0372,0.0375,0.0306,0,0,0,0,0]}]]